Theta_e
331 318 316 316 306 303 298 301 305 305 306 311 312 311 311 314 309 305 331 336 338 341 345 346 347 347 345 343 342 341 341 340 340 340 340 340 339 337 336 336 335 335 335 335 335 336 336 335 338
322 316 316 310 301 297 299 303 304 308 312 315 315 314 314 312 323 326 330 337 341 343 344 345 343 345 344 342 341 340 341 341 339 339 342 340 337 336 336 334 336 334 333 333 335 333 334 334 339
317 315 311 304 298 297 299 306 306 309 313 312 314 318 317 316 324 326 332 339 342 342 343 342 342 344 343 341 340 340 340 340 338 341 339 340 338 336 335 335 334 333 332 332 333 333 332 333 337
313 312 308 302 300 302 303 308 309 311 313 314 314 311 319 326 325 330 336 340 341 341 341 341 344 344 341 340 338 338 337 336 337 339 338 341 339 336 336 335 334 332 331 331 332 332 331 332 334
311 308 301 299 300 303 303 310 311 310 310 312 314 311 315 326 330 333 337 340 338 339 340 341 342 343 342 340 339 339 338 338 337 339 340 342 339 336 335 334 333 330 330 330 330 330 329 330 332
309 306 298 297 300 302 304 311 310 309 310 311 312 313 315 327 329 333 337 339 339 337 339 340 336 338 340 340 340 340 340 339 336 338 341 342 339 337 335 335 331 331 332 330 329 328 327 329 329
306 302 298 298 299 301 304 311 309 310 310 311 314 310 316 324 329 333 336 338 337 338 338 339 339 337 334 337 336 337 338 335 338 337 338 341 339 338 336 336 334 331 332 331 330 327 326 327 327
304 303 299 298 298 301 305 307 308 310 310 314 318 308 309 322 329 332 334 335 335 335 338 337 338 338 337 337 330 332 334 335 335 334 332 330 333 334 333 330 333 334 333 332 330 329 326 325 325
307 300 297 299 299 302 304 305 308 312 312 313 316 315 318 326 329 329 328 331 331 333 335 336 336 336 336 335 331 328 330 332 331 330 327 326 329 329 329 327 331 335 335 333 331 330 329 328 325
303 299 300 303 302 301 302 304 304 307 308 310 313 320 324 325 325 324 325 326 328 330 332 334 335 335 335 333 334 333 333 334 333 331 329 328 328 327 326 323 323 329 331 333 333 331 330 327 325
301 299 302 302 302 302 302 302 304 305 303 308 308 313 322 322 323 324 325 328 328 331 332 333 333 334 334 333 334 332 332 332 331 330 328 327 325 325 326 325 325 326 323 330 331 330 329 327 325
300 302 301 305 303 302 302 304 303 303 306 308 311 311 320 322 322 323 324 325 327 330 332 333 333 332 333 334 333 332 330 330 330 329 327 326 324 323 323 324 324 325 325 327 328 327 326 325 323
301 302 303 305 304 303 303 303 303 303 307 306 306 309 310 318 321 323 324 325 326 326 329 332 333 332 331 332 333 332 330 330 330 328 327 325 324 323 322 322 323 323 324 324 325 325 324 323 322
302 303 303 304 304 304 302 302 302 304 305 305 306 306 309 315 319 321 322 324 324 326 327 330 331 333 332 331 332 331 331 331 329 328 327 325 324 323 322 321 321 322 323 324 323 324 323 322 321
304 300 301 302 303 303 303 299 299 304 304 305 305 305 305 305 310 318 322 323 325 326 328 327 329 332 332 332 332 332 330 330 329 329 328 326 324 323 323 322 321 321 322 322 322 322 322 321 321
300 298 294 300 301 303 302 297 302 304 303 304 304 304 305 307 307 309 314 320 323 326 326 328 328 329 331 332 332 332 331 330 328 329 329 327 326 324 323 322 322 322 321 321 321 321 321 320 320
297 291 292 296 301 300 299 295 301 304 302 302 302 303 304 306 308 310 310 311 317 323 325 326 327 327 329 331 332 332 332 330 329 330 329 327 326 325 324 323 323 323 322 321 321 320 320 320 319
290 290 292 293 297 298 297 295 299 302 301 301 302 302 303 305 307 311 311 312 312 319 324 326 327 327 326 328 330 331 331 330 330 329 329 328 326 325 324 324 323 322 321 321 320 320 320 320 319
294 292 291 293 298 296 295 296 298 301 300 300 302 302 303 305 309 310 310 311 310 311 320 323 324 326 326 323 324 325 325 327 328 329 330 329 328 326 325 323 322 320 319 320 319 319 318 317 318
298 295 292 295 298 297 294 295 298 299 301 302 303 303 304 305 305 306 308 309 309 309 312 318 323 325 325 325 325 326 326 327 328 329 329 329 329 327 326 325 324 323 321 321 320 318 318 318 317
295 294 292 293 295 296 293 293 295 298 300 300 301 303 303 303 303 304 305 306 307 307 308 313 320 323 325 326 325 324 324 323 324 326 326 328 328 328 326 326 326 325 323 323 322 320 317 316 317
291 294 294 293 292 287 292 283 290 292 294 295 297 298 299 300 299 299 301 302 304 304 305 308 315 322 324 326 325 323 322 321 324 325 326 327 328 327 327 326 325 325 324 322 323 322 321 319 316
291 295 293 291 289 288 288 287 287 292 291 294 298 299 298 296 296 296 297 298 299 300 303 307 312 315 321 323 325 323 322 324 324 324 324 325 326 327 326 326 326 325 324 324 322 322 320 320 318
295 294 294 293 292 284 287 286 287 288 291 293 294 296 295 294 294 295 296 298 297 298 300 300 301 301 303 311 317 321 321 321 321 321 321 322 323 323 324 325 325 325 324 323 322 322 321 319 319
295 292 284 282 282 280 286 286 289 292 295 293 294 294 292 292 292 293 293 294 295 294 295 297 297 297 300 301 302 304 306 310 312 315 319 322 323 323 324 323 323 323 324 324 324 322 321 320 319
293 291 284 277 276 278 284 283 287 292 295 295 295 291 291 290 291 291 292 292 293 292 292 293 293 294 296 298 298 299 300 302 304 304 306 307 309 312 314 318 324 324 324 324 324 323 322 322 320
290 288 292 282 279 278 281 284 290 290 289 292 290 289 288 288 289 289 290 291 290 290 289 290 290 291 293 294 296 295 296 297 297 299 299 300 301 302 305 309 312 317 323 323 322 322 321 321 321
292 293 285 286 277 275 279 280 283 285 288 288 288 287 286 287 287 287 287 288 290 289 288 288 288 289 290 291 293 293 293 294 294 295 294 294 295 296 298 300 303 306 311 315 320 322 322 320 320
291 288 289 288 285 279 277 279 286 288 288 286 285 286 285 285 285 285 285 286 287 289 286 285 285 286 288 289 290 290 290 290 291 290 289 289 290 291 293 295 297 299 301 304 307 311 316 320 320
292 290 290 283 280 282 279 281 292 290 289 287 286 286 286 286 286 285 284 284 285 287 284 283 283 284 285 287 288 286 287 288 286 285 285 286 286 288 290 292 293 295 296 298 300 302 305 309 311
Wind_Speed
9 7 2 5 5 5 1 1 0 2 1 1 2 3 3 2 2 1 3 7 3 9 8 10 10 10 8 7 7 7 6 6 9 9 11 12 11 11 11 11 11 12 10 10 13 9 8 6 5
6 4 4 3 5 3 2 2 1 1 3 4 3 1 2 1 0 1 4 5 8 9 8 8 9 9 8 8 7 6 6 6 8 8 11 13 11 11 10 11 9 10 10 9 9 7 7 6 10
2 4 4 5 3 3 2 1 3 1 4 0 2 2 2 0 1 3 2 9 10 9 8 6 8 8 9 9 8 7 5 7 6 9 6 11 13 10 9 9 9 9 8 9 7 7 7 9 10
5 5 4 6 3 1 1 1 2 3 1 1 1 2 1 1 2 3 7 11 11 8 8 8 8 9 8 9 9 8 7 6 4 9 9 11 12 11 9 8 9 8 7 8 6 6 5 5 7
5 4 5 4 3 3 2 1 3 1 1 0 1 1 1 1 1 4 10 11 12 8 7 8 9 9 8 7 7 6 8 7 5 3 9 12 14 12 9 8 8 7 7 7 6 4 3 3 5
5 3 5 1 3 4 2 2 2 1 1 1 1 1 2 1 3 5 9 11 10 10 7 6 8 8 8 7 6 5 8 7 8 6 4 13 12 13 9 9 8 7 8 6 5 4 2 2 4
5 4 4 3 2 3 2 2 2 2 2 0 3 1 2 1 4 7 7 8 9 8 8 7 7 7 8 7 6 6 6 8 8 8 6 6 11 11 9 6 7 8 8 7 6 4 3 2 2
4 4 3 1 2 2 1 1 1 4 4 2 1 0 2 2 5 7 6 6 7 8 8 8 7 7 6 6 8 7 5 4 4 6 5 5 8 8 8 9 6 8 10 8 7 5 3 2 1
2 5 1 3 4 2 2 2 0 1 1 2 1 2 1 1 6 6 5 5 6 6 8 8 8 8 8 7 6 7 8 6 5 5 7 5 2 3 6 4 8 11 11 10 8 7 5 3 0
5 3 7 2 2 1 1 2 0 2 1 2 3 2 2 5 5 8 8 10 10 10 9 8 10 9 8 7 8 7 6 5 6 5 5 3 4 3 4 5 6 6 10 12 11 8 5 4 3
2 5 3 1 1 0 1 1 0 3 2 5 4 2 2 5 6 8 9 11 13 12 8 9 9 10 10 8 6 4 4 5 4 6 6 5 3 3 3 3 3 3 4 3 3 3 3 4 3
2 2 3 1 3 1 2 3 4 4 3 3 3 2 1 5 9 10 10 9 8 11 13 11 10 9 11 7 7 7 6 6 6 7 8 6 4 5 5 4 5 4 3 4 4 4 5 5 5
3 3 2 2 3 3 1 5 4 4 8 3 5 4 5 6 7 6 6 7 8 10 11 13 13 11 10 11 8 8 8 7 8 8 9 7 7 7 6 6 5 5 5 6 6 6 6 6 7
2 2 1 3 4 3 3 3 2 5 3 2 0 5 6 6 6 5 6 9 10 11 12 12 14 14 12 11 11 9 8 9 8 8 9 11 8 8 7 7 7 7 7 7 7 7 7 7 6
3 2 0 4 3 4 4 4 8 6 2 7 8 5 5 6 6 9 8 10 11 12 12 13 13 13 14 15 13 10 9 7 9 9 11 12 11 11 10 8 8 8 7 9 7 7 7 7 7
3 4 1 2 3 4 5 13 3 3 5 7 5 7 7 8 7 9 11 12 12 12 12 12 10 13 14 13 11 10 8 8 9 9 9 13 13 12 10 9 9 8 6 7 8 8 8 8 8
3 4 5 5 1 2 6 5 5 2 3 6 7 7 8 11 14 14 13 13 14 13 13 13 12 14 14 13 10 11 12 10 10 9 9 12 13 13 11 9 9 10 8 8 8 8 9 8 8
7 4 3 6 1 2 6 10 12 10 6 9 8 7 9 13 18 18 14 14 11 11 11 12 10 14 13 10 9 8 8 9 10 10 9 12 10 13 11 10 10 9 8 9 9 11 9 10 9
3 4 6 1 3 1 7 14 11 11 5 9 11 10 11 15 19 14 13 9 9 9 11 13 11 13 9 7 7 8 11 10 9 9 11 13 12 13 12 9 8 8 10 11 10 9 11 8 8
10 7 5 3 2 2 6 20 9 6 9 12 13 12 16 17 11 10 13 12 10 13 11 11 12 11 11 8 6 5 5 7 8 8 11 13 12 12 12 12 10 11 9 11 11 11 8 8 8
6 13 5 5 0 3 6 27 14 8 6 7 9 15 13 11 14 14 14 13 8 9 9 9 10 10 10 13 6 3 2 0 3 7 7 8 12 11 12 12 10 10 10 9 11 12 13 10 6
10 6 6 4 2 7 3 20 13 6 11 4 11 7 10 10 7 10 14 12 9 9 8 6 5 6 7 8 8 11 8 8 6 6 5 7 11 12 12 13 12 12 9 11 11 10 12 10 10
7 7 8 5 3 3 5 8 3 9 4 8 13 7 7 6 5 8 11 11 12 13 12 10 9 9 3 5 7 5 7 4 2 2 5 6 7 10 10 11 12 11 9 12 12 11 11 10 10
8 5 3 2 3 11 8 10 18 3 6 2 2 1 4 5 9 11 11 13 13 14 14 14 14 15 14 12 8 4 2 2 2 2 2 3 3 4 8 10 10 11 10 11 11 12 14 12 12
7 8 4 5 8 7 6 10 22 9 13 7 10 3 7 8 10 11 14 14 14 16 16 14 16 17 15 15 16 14 13 12 10 8 5 5 3 2 5 8 9 8 11 12 11 11 12 12 11
12 9 5 6 5 2 2 10 8 2 4 6 6 11 10 10 9 11 12 11 13 15 16 16 16 17 16 16 15 14 14 9 8 10 8 7 7 8 10 9 8 9 10 10 11 9 10 11 11
6 10 9 3 4 2 6 10 14 5 6 7 8 11 10 9 10 11 11 12 12 13 15 15 15 15 16 15 12 14 13 13 11 12 10 8 9 10 12 11 10 11 9 9 10 8 10 11 12
7 8 4 6 6 7 5 5 9 8 10 7 7 7 9 9 10 9 9 10 9 11 10 12 13 13 13 13 12 11 12 13 12 11 13 13 11 12 12 13 12 12 12 12 11 9 10 11 9
6 6 2 1 4 5 4 7 6 6 5 10 6 5 5 6 7 7 7 6 7 8 11 12 13 13 12 12 11 12 12 12 12 11 12 13 12 13 13 12 12 13 13 13 12 12 13 13 13
8 12 11 7 6 4 2 8 5 6 9 16 17 12 8 7 4 6 7 6 8 8 10 11 11 11 12 11 11 13 13 13 13 13 13 14 15 14 13 14 13 13 13 13 13 14 13 14 15
Wind_Direction
335 326 62 39 55 63 46 260 305 109 86 296 86 140 189 94 164 223 348 180 151 147 156 157 150 131 138 147 144 149 144 152 132 127 136 134 121 122 125 119 119 113 115 118 122 110 76 51 67
330 346 45 75 82 75 283 260 174 85 153 133 87 72 37 58 237 71 123 177 154 147 151 154 144 140 154 155 148 153 154 145 153 168 158 132 129 132 140 129 127 120 116 119 115 93 64 66 86
345 36 71 81 99 132 130 196 131 93 159 320 100 37 137 73 225 191 229 153 146 144 148 148 147 156 158 156 151 158 152 160 188 161 132 141 137 142 141 133 130 124 128 130 122 93 70 32 40
16 14 44 72 61 27 16 48 158 126 115 317 116 82 273 220 182 187 148 150 149 151 152 151 149 158 167 162 162 166 158 172 164 153 162 160 139 147 152 143 131 142 142 124 127 114 86 55 42
31 56 53 68 338 302 312 130 162 101 93 87 334 348 251 162 40 138 152 154 160 160 163 163 160 160 165 176 181 183 165 179 189 200 172 170 153 149 162 158 162 155 129 138 131 137 110 80 57
38 86 64 84 320 309 327 133 128 44 103 171 82 176 268 19 170 164 157 159 161 171 171 173 173 166 165 179 190 194 181 187 189 242 208 145 157 155 169 184 174 158 143 150 145 138 136 106 66
94 66 141 149 314 348 313 180 146 196 336 186 140 112 279 246 192 157 158 153 164 174 176 180 183 183 174 177 188 202 244 198 213 197 246 185 171 161 172 180 171 174 158 165 164 158 146 137 58
95 87 104 172 170 242 295 242 115 164 248 96 171 24 341 343 140 143 152 168 176 183 189 191 189 185 194 193 185 198 226 250 199 191 216 164 159 180 174 176 189 183 174 180 179 180 182 166 117
111 65 174 185 166 217 315 172 77 284 100 293 144 186 158 72 129 135 158 181 195 205 205 199 199 196 193 193 205 197 195 214 220 203 195 194 205 207 185 198 210 204 182 187 194 196 200 202 30
81 112 215 195 198 166 282 207 211 125 50 288 321 183 57 152 170 180 195 205 207 208 204 208 212 210 201 199 198 200 206 203 195 201 227 227 220 220 210 215 251 271 199 188 193 207 217 216 223
146 167 207 237 201 221 310 304 308 137 245 224 208 264 143 179 198 212 215 217 220 218 208 204 211 216 207 206 203 204 201 199 205 208 202 207 231 250 243 234 243 238 217 192 195 206 225 225 229
130 229 168 11 30 358 306 309 306 176 238 326 147 329 204 210 216 219 229 228 218 215 223 216 211 215 215 207 206 209 206 205 203 206 202 203 204 213 235 238 236 237 230 229 226 229 232 238 240
154 213 173 337 324 273 319 262 256 263 266 293 312 304 285 270 249 248 247 243 237 230 219 217 216 215 217 212 214 218 217 213 213 205 204 200 210 212 209 228 242 241 230 228 231 239 243 245 244
142 169 318 327 300 276 235 248 164 266 328 13 275 298 300 285 279 270 254 256 243 246 232 218 212 214 213 214 215 217 215 216 210 213 213 206 207 214 215 216 226 241 236 235 235 237 243 250 254
138 250 356 222 229 251 172 259 239 220 306 280 291 300 303 296 300 263 259 251 243 240 237 216 217 210 210 216 218 221 224 211 216 216 214 211 209 210 213 223 220 225 242 247 241 241 243 250 252
166 78 141 276 188 246 150 263 235 170 191 247 302 307 319 308 251 257 258 254 256 247 230 228 213 210 212 214 215 216 212 214 221 214 211 212 213 214 213 216 228 223 214 226 236 241 246 249 250
212 232 200 306 135 286 189 261 245 150 174 277 280 289 298 294 290 277 254 242 249 239 238 233 213 214 209 214 215 217 220 219 224 217 213 209 212 211 214 216 220 214 220 221 227 235 236 242 243
205 215 205 207 299 246 256 255 271 270 260 265 274 273 273 274 274 275 270 263 260 244 232 237 220 218 206 207 208 216 222 226 225 223 217 211 209 209 213 220 216 209 216 221 223 233 229 241 247
160 197 216 254 204 210 245 260 257 271 285 275 276 269 263 261 268 281 280 262 253 252 239 230 220 221 194 195 205 219 221 221 227 229 222 216 214 210 210 220 220 204 214 218 215 222 233 237 234
216 222 205 219 265 212 295 279 255 230 249 247 257 267 264 273 280 286 284 277 253 260 245 241 220 217 203 205 204 205 196 221 218 216 217 216 217 214 214 217 221 214 215 223 220 212 225 231 192
211 225 167 212 11 250 325 285 270 232 226 237 242 242 264 273 292 296 297 299 286 271 262 246 235 223 207 207 193 183 177 276 205 223 224 220 217 215 216 225 227 224 227 236 223 218 221 237 208
220 159 159 140 103 265 152 287 273 254 246 232 257 280 279 285 323 315 316 316 332 335 322 290 260 230 218 213 207 207 211 222 228 222 217 215 205 213 213 219 221 226 218 229 236 228 226 223 234
236 154 172 150 179 288 208 275 314 83 325 277 264 268 277 347 346 7 13 21 14 9 14 22 36 30 322 197 211 209 223 245 253 228 232 231 226 224 223 225 233 231 230 235 233 233 225 228 232
152 108 102 123 191 241 205 201 277 207 193 277 304 159 36 50 40 36 29 30 27 21 26 29 40 40 35 40 37 39 18 327 324 300 276 263 240 227 230 232 230 234 239 238 237 235 235 230 234
164 132 196 208 198 256 206 190 252 312 301 223 243 206 83 63 59 48 39 31 30 28 27 29 32 37 35 43 41 35 35 36 35 17 6 346 310 264 246 239 239 232 236 242 242 240 235 236 237
189 184 191 215 199 230 53 233 252 125 316 355 5 96 91 71 58 55 51 42 35 34 30 32 32 33 29 33 37 35 32 34 30 27 24 20 10 355 348 349 301 265 256 251 249 248 243 240 240
174 213 211 331 98 254 223 270 280 53 44 10 111 100 91 80 66 55 43 44 42 39 35 33 33 34 31 30 32 33 28 30 22 25 20 11 10 357 346 346 343 334 304 271 266 266 260 249 250
170 158 154 189 223 229 246 259 238 355 326 22 65 77 81 77 74 62 54 43 43 41 37 34 33 34 28 29 30 30 24 25 21 18 18 6 358 359 349 347 346 342 335 333 311 279 264 258 254
179 196 142 125 190 216 225 245 200 223 236 113 79 84 93 96 97 90 72 58 48 51 39 33 28 28 23 24 25 29 23 23 24 17 10 0 353 354 352 342 343 346 338 337 331 318 310 289 275
215 209 185 218 195 218 218 272 177 225 162 144 152 162 166 137 111 99 91 65 48 46 45 36 28 22 16 22 28 24 18 17 16 12 5 359 356 353 348 348 343 340 338 336 333 322 323 319 310